TimeCDT,TemperatureF,Dew PointF,Humidity,Sea Level PressureIn,VisibilityMPH,Wind Direction,Wind SpeedMPH,Gust SpeedMPH,PrecipitationIn,Events,Conditions,WindDirDegrees,DateUTC
12:15 AM,30.2,26.6,86,29.88,10.0,NNW,21.9,32.2,N/A,,Overcast,330,2013-03-10 06:15:00
12:35 AM,30.2,26.6,86,29.87,10.0,NNW,24.2,32.2,N/A,,Overcast,330,2013-03-10 06:35:00
12:55 AM,30.2,26.6,86,29.89,10.0,NNW,21.9,32.2,N/A,,Overcast,330,2013-03-10 06:55:00
1:15 AM,30.2,26.6,86,29.89,10.0,NNW,24.2,28.8,N/A,,Overcast,340,2013-03-10 07:15:00
1:35 AM,30.2,26.6,86,29.89,8.0,NNW,24.2,31.1,N/A,,Overcast,330,2013-03-10 07:35:00
1:55 AM,30.2,28.4,93,29.89,7.0,NNW,24.2,33.4,N/A,,Overcast,330,2013-03-10 07:55:00
3:15 AM,30.2,28.4,93,29.89,5.0,NNW,27.6,33.4,N/A,,Overcast,330,2013-03-10 08:15:00
3:35 AM,30.2,26.6,86,29.89,6.0,NNW,28.8,34.5,N/A,,Overcast,330,2013-03-10 08:35:00
3:55 AM,30.2,26.6,86,29.89,7.0,NNW,26.5,41.4,N/A,,Overcast,330,2013-03-10 08:55:00
4:15 AM,28.4,26.6,93,29.90,5.0,NW,32.2,36.8,N/A,,Overcast,320,2013-03-10 09:15:00
4:35 AM,28.4,24.8,86,29.91,5.0,NNW,29.9,39.1,N/A,,Overcast,330,2013-03-10 09:35:00
4:55 AM,26.6,23.0,86,29.91,5.0,NW,33.4,39.1,N/A,,Overcast,320,2013-03-10 09:55:00
5:15 AM,24.8,21.2,86,29.91,3.0,NW,27.6,39.1,N/A,,Overcast,320,2013-03-10 10:15:00
5:35 AM,24.8,21.2,86,29.93,3.0,NNW,28.8,36.8,N/A,,Overcast,330,2013-03-10 10:35:00
5:55 AM,24.8,21.2,86,29.94,5.0,NNW,29.9,38.0,N/A,,Overcast,330,2013-03-10 10:55:00
6:15 AM,24.8,19.4,80,29.95,6.0,NNW,26.5,35.7,N/A,,Overcast,330,2013-03-10 11:15:00
7:35 AM,23.0,21.2,93,29.99,7.0,NW,28.8,34.5,N/A,,Overcast,320,2013-03-10 12:35:00
7:55 AM,23.0,21.2,93,29.99,7.0,NNW,27.6,-,N/A,,Overcast,330,2013-03-10 12:55:00
8:15 AM,21.2,19.4,93,30.01,5.0,NNW,28.8,32.2,N/A,,Overcast,330,2013-03-10 13:15:00
8:35 AM,21.2,19.4,93,30.00,5.0,NW,26.5,36.8,N/A,,Overcast,320,2013-03-10 13:35:00
8:55 AM,21.2,17.6,86,30.01,5.0,NW,26.5,31.1,N/A,,Overcast,320,2013-03-10 13:55:00
9:15 AM,21.2,19.4,93,30.03,6.0,NNW,21.9,34.5,N/A,,Overcast,330,2013-03-10 14:15:00
9:35 AM,23.0,19.4,86,30.02,7.0,NNW,27.6,33.4,N/A,,Overcast,330,2013-03-10 14:35:00
9:55 AM,23.0,19.4,86,30.02,8.0,NNW,26.5,34.5,N/A,,Overcast,330,2013-03-10 14:55:00
10:15 AM,24.8,19.4,80,30.02,9.0,NNW,32.2,39.1,N/A,,Overcast,330,2013-03-10 15:15:00
10:35 AM,24.8,19.4,80,30.03,10.0,NNW,33.4,40.3,N/A,,Overcast,330,2013-03-10 15:35:00
10:55 AM,23.0,19.4,86,30.03,10.0,NW,32.2,36.8,N/A,,Overcast,320,2013-03-10 15:55:00
11:15 AM,24.8,19.4,80,30.03,10.0,NNW,29.9,36.8,N/A,,Overcast,330,2013-03-10 16:15:00
11:35 AM,24.8,19.4,80,30.03,10.0,NNW,27.6,34.5,N/A,,Overcast,330,2013-03-10 16:35:00
11:55 AM,24.8,19.4,80,30.04,10.0,NNW,27.6,35.7,N/A,,Overcast,330,2013-03-10 16:55:00
12:15 PM,24.8,19.4,80,30.04,10.0,NNW,29.9,34.5,N/A,,Overcast,330,2013-03-10 17:15:00
12:35 PM,24.8,17.6,74,30.03,10.0,NNW,28.8,39.1,N/A,,Overcast,330,2013-03-10 17:35:00
12:55 PM,24.8,19.4,80,30.04,10.0,NNW,33.4,39.1,N/A,,Overcast,330,2013-03-10 17:55:00
1:15 PM,24.8,19.4,80,30.02,10.0,NNW,33.4,40.3,N/A,,Overcast,330,2013-03-10 18:15:00
1:35 PM,24.8,17.6,74,30.02,10.0,NNW,29.9,39.1,N/A,,Overcast,330,2013-03-10 18:35:00
1:55 PM,24.8,17.6,74,30.03,10.0,NNW,31.1,40.3,N/A,,Overcast,330,2013-03-10 18:55:00
2:15 PM,23.0,17.6,80,30.03,10.0,NNW,27.6,36.8,N/A,,Overcast,330,2013-03-10 19:15:00
2:35 PM,23.0,17.6,80,30.03,10.0,NNW,27.6,33.4,N/A,,Overcast,330,2013-03-10 19:35:00
2:55 PM,23.0,15.8,74,30.01,10.0,NNW,26.5,32.2,N/A,,Overcast,330,2013-03-10 19:55:00
3:15 PM,23.0,15.8,74,30.00,10.0,NNW,26.5,34.5,N/A,,Overcast,330,2013-03-10 20:15:00
3:35 PM,24.8,17.6,74,30.01,10.0,NNW,25.3,34.5,N/A,,Overcast,330,2013-03-10 20:35:00
3:55 PM,24.8,17.6,74,30.01,10.0,NW,26.5,32.2,N/A,,Overcast,320,2013-03-10 20:55:00
4:15 PM,24.8,17.6,74,30.01,10.0,NW,24.2,34.5,N/A,,Overcast,320,2013-03-10 21:15:00
4:35 PM,24.8,17.6,74,30.01,10.0,NW,23.0,31.1,N/A,,Overcast,320,2013-03-10 21:35:00
4:55 PM,24.8,17.6,74,30.01,10.0,NW,24.2,33.4,N/A,,Overcast,320,2013-03-10 21:55:00
5:15 PM,24.8,17.6,74,30.01,10.0,NW,19.6,33.4,N/A,,Overcast,320,2013-03-10 22:15:00
5:35 PM,24.8,17.6,74,30.01,10.0,NW,24.2,33.4,N/A,,Overcast,320,2013-03-10 22:35:00
5:55 PM,24.8,17.6,74,30.00,10.0,NW,23.0,33.4,N/A,,Overcast,320,2013-03-10 22:55:00
6:15 PM,24.8,17.6,74,30.00,10.0,NW,24.2,33.4,N/A,,Overcast,320,2013-03-10 23:15:00
6:35 PM,24.8,17.6,74,30.00,10.0,NW,24.2,31.1,N/A,,Overcast,320,2013-03-10 23:35:00
6:55 PM,23.0,17.6,80,30.01,10.0,NW,24.2,32.2,N/A,,Overcast,320,2013-03-10 23:55:00
7:15 PM,23.0,17.6,80,30.02,10.0,NNW,20.7,31.1,N/A,,Overcast,330,2013-03-11 00:15:00
7:35 PM,23.0,17.6,80,30.03,10.0,NNW,24.2,33.4,N/A,,Overcast,330,2013-03-11 00:35:00
7:55 PM,23.0,17.6,80,30.03,10.0,NW,24.2,28.8,N/A,,Overcast,320,2013-03-11 00:55:00
8:15 PM,23.0,17.6,80,30.03,10.0,NW,19.6,-,N/A,,Overcast,320,2013-03-11 01:15:00
8:35 PM,23.0,17.6,80,30.03,10.0,NNW,23.0,27.6,N/A,,Overcast,330,2013-03-11 01:35:00
9:15 PM,21.2,17.6,86,30.04,10.0,NW,20.7,26.5,N/A,,Overcast,320,2013-03-11 02:15:00
9:35 PM,21.2,17.6,86,30.04,10.0,NW,24.2,29.9,N/A,,Overcast,320,2013-03-11 02:35:00
9:55 PM,21.2,15.8,80,30.04,10.0,NW,20.7,28.8,N/A,,Overcast,320,2013-03-11 02:55:00
10:15 PM,21.2,15.8,80,30.04,10.0,NW,19.6,25.3,N/A,,Overcast,320,2013-03-11 03:15:00
10:35 PM,21.2,15.8,80,30.04,10.0,NNW,18.4,24.2,N/A,,Overcast,330,2013-03-11 03:35:00
10:55 PM,19.4,15.8,86,30.04,10.0,NNW,13.8,26.5,N/A,,Overcast,330,2013-03-11 03:55:00
11:15 PM,19.4,15.8,86,30.03,10.0,NNW,15.0,24.2,N/A,,Overcast,330,2013-03-11 04:15:00
11:35 PM,19.4,15.8,86,30.02,6.0,NW,19.6,23.0,N/A,,Overcast,320,2013-03-11 04:35:00
12:35 AM,19.4,14.0,80,30.01,5.0,NNW,13.8,-,N/A,,Overcast,330,2013-03-11 05:35:00
12:55 AM,19.4,15.8,86,30.00,9.0,NW,10.4,-,N/A,,Overcast,310,2013-03-11 05:55:00